Location: Ewingville
(35.9217°N, 86.8578°W)
Time: 18:52:13
(UTC+00:00)

Daily predictions for brighter satellites

Satellite Brightness Start Highest point End
(mag) Time Altitude Azimuth Time Altitude Azimuth Time Altitude Azimuth
STARLINK 1044 3.1 12:01:51 10° WSW 12:04:31 39° NW 12:07:11 10° NNE
Exosat Rocket 4.4 12:00:43 10° NNW 12:06:51 80° WSW 12:15:36 10° SSE
BREEZE-M DEB (TANK) 4.0 12:01:21 10° WSW 12:14:30 59° NW 12:18:16 10° NE
GPS 2-04 Rocket1 2.4 22:58:05 10° W 23:01:40 87° S 23:05:07 10° E
Cosmos 1633 Rocket 3.2 22:58:23 10° N 23:02:42 51° E 23:07:00 10° SSE
Sich 1 3.1 22:58:39 10° N 23:03:03 87° W 23:07:27 10° S
Okean-O 3.3 23:04:36 10° SE 23:08:33 33° ENE 23:12:32 10° N
Cosmos 1328 Rocket 3.5 23:06:07 10° S 23:10:29 67° E 23:14:52 10° NNE
NOAA 12 4.5 23:08:38 10° SE 23:13:37 42° ENE 23:18:37 10° N
CORIOLIS 4.2 23:10:09 10° SSE 23:15:27 61° ENE 23:20:49 10° N
SeaSat 1 3.9 23:12:40 10° E 23:15:44 17° NE 23:18:50 10° NNE
Cosmos 1515 Rocket 3.8 23:14:39 10° SSE 23:18:52 48° E 23:23:04 10° NNE
DELTA 2 R/B (1) 3.6 23:14:14 10° WSW 23:19:50 89° S 23:24:57 13° ENE
Cosmos 1666 Rocket 3.7 23:16:32 10° N 23:20:53 76° W 23:25:10 10° S
Cosmos 397 4.5 23:17:19 10° NNW 23:21:24 79° ENE 23:26:05 10° SSE
Cosmos 1933 Rocket 4.3 23:17:59 10° NNE 23:21:53 31° ENE 23:25:46 10° SE
Okean O Rocket 4.1 23:19:35 10° SSW 23:23:15 26° W 23:26:54 10° NW
YAOGAN 6 3.7 23:21:59 10° ESE 23:24:38 21° ENE 23:27:17 10° NNE
Cosmos 2228 Rocket 3.7 23:20:55 10° SSE 23:24:59 35° E 23:29:06 10° NNE
CZ-4 R/B 2.6 23:21:55 10° ESE 23:25:01 21° ENE 23:28:05 10° NNE
GEOS 3 Rocket 3.7 23:21:53 10° NE 23:27:05 62° ESE 23:32:18 10° SSW
COSMO-SKYMED 1 3.0 23:23:40 10° NNE 23:27:46 40° E 23:31:51 10° S
COSMOS 2455 3.6 23:24:23 10° SSE 23:29:35 31° ESE 23:34:09 13° NE
Cosmos 2360 Rocket 3.6 23:28:43 10° SE 23:32:11 17° E 23:33:39 15° E
Cosmos 1862 4.0 23:28:16 10° NNW 23:32:12 58° W 23:36:07 10° S
Cosmos 1933 3.4 23:28:22 10° S 23:32:21 59° E 23:36:22 10° NNE
Cosmos 1624 Rocket 4.0 23:27:22 10° N 23:32:40 63° ENE 23:37:55 10° SSE
Cosmos 2056 Rocket 3.4 23:29:16 10° N 23:34:24 63° ENE 23:39:34 10° SSE
Cosmos 1980 Rocket 3.3 23:32:09 10° SW 23:37:33 46° WNW 23:43:01 10° N
Cosmos 2034 Rocket 4.0 23:31:16 10° N 23:37:41 88° E 23:44:02 10° S
H-2A R/B 3.3 23:34:49 10° S 23:38:36 62° W 23:42:22 10° NNW
ISS -3.8 23:36:07 10° SW 23:39:28 82° NW 23:41:35 21° NE
NOSS 2-2 (D) 4.4 23:37:55 10° SSE 23:40:47 22° ESE 23:41:33 20° E
SL-16 R/B 2.3 23:35:39 10° S 23:41:08 53° ESE 23:46:38 10° NNE
COBE Rocket 4.3 23:37:59 10° N 23:42:37 60° WNW 23:47:09 10° SSW
ATLAS 5 CENTAUR R/B 3.8 23:41:37 10° SSW 23:44:20 15° SSE 23:49:08 10° ESE
YAOGAN 1 3.4 23:40:42 10° SE 23:44:23 28° ENE 23:48:04 10° NNE
Cosmos 2322 Rocket 2.4 23:40:38 10° S 23:45:59 49° ESE 23:50:43 13° NE
Envisat 2.9 23:44:17 10° SSE 23:49:21 77° ENE 23:54:26 10° N
Cosmos 1782 3.7 23:46:00 10° SSE 23:49:28 28° E 23:50:12 27° ENE
Meteor 1-20 Rocket 4.5 23:45:16 10° N 23:50:50 45° ENE 23:56:17 10° SSE
Cosmos 1634 Rocket 4.2 23:45:50 10° N 23:51:44 46° E 23:57:37 10° SSE
SKYMED 3 4.5 23:47:34 10° NNE 23:51:55 80° E 23:56:15 10° S
Cosmos 1470 Rocket 3.7 23:48:04 10° N 23:52:33 78° W 23:56:59 10° S
NOSS 8 (F) 4.4 23:49:58 10° SSW 23:53:32 55° ESE 23:54:31 37° ENE
